Location: Hertford
(51.8000°N, 0.0667°W)
Time: 12:43:35
(UTC+00:00)

Cosmos 1805 - Pass Details

Date: 18 September 2020
Orbit: 524 x 531 km, 82.5° (Epoch: 23 October)

Event Time Altitude Azimuth Distance (km) Brightness Sun altitude
Exits shadow 20:35:30 76° 212° (SSW) 554 3.2 -22.4°
Maximum altitude 20:35:47 85° 278° (W) 541 3.2 -22.4°
Drops below altitude 10° 20:39:44 10° 10° (N) 1,795 6.2 -22.9°
Sets 20:41:54 0° 11° (N) 2,691 7.2 -23.2°
